Regional Weather Roundup
Issued by NWS

Home | Current Version | Previous Version | Graphics & Text | Print | Product List | Glossary On
Versions: 1 2 3 4 5 6 7 8 9 10 11 12 13 14 15 16 17 18 19 20 21 22 23 24 25 26 27 28 29 30 31 32 33 34 35 36 37 38 39 40 41 42 43 44 45 46 47 48 49 50
249
ASUS45 KCYS 222010
RWRWY

WYOMING REGIONAL WEATHER ROUNDUP
NATIONAL WEATHER SERVICE CHEYENNE WY
100 PM MST THU FEB 22 2018

NOTE:  "FAIR" INDICATES FEW OR NO CLOUDS BELOW 12,000 FEET
WITH NO SIGNIFICANT WEATHER AND/OR OBSTRUCTIONS TO VISIBILITY.

WYZ001-222100-
YELLOWSTONE NATIONAL PARK

CITY           SKY/WX    TMP DP  RH WIND       PRES   REMARKS
LK YELLOWSTONE   N/A     11  -2  56 VRB3      29.86F
W YELLOWSTONE  NOT AVBL

$$
WYZ002>013-054>058-071-098>099-222100-
NORTHERN WYOMING

CITY           SKY/WX    TMP DP  RH WIND       PRES   REMARKS
JACKSON        FAIR      15   3  59 SE5       29.92F WCI   8
CODY           NOT AVBL
GREYBULL       FAIR       5  -2  72 N3        30.05F
WORLAND        FLURRIES  12   2  64 NE8       30.01F WCI   0
SHERIDAN       FAIR      18   2  49 NW3       30.03F
BUFFALO        FAIR      27  -1  30 NE3       29.98F
GILLETTE       FAIR      24   4  42 CALM      30.00F
HULETT         CLOUDY    27  10  50 MISG      30.01F
NEWCASTLE      FAIR      21  10  63 SW3       30.01F

$$
WYZ014>020-022>026-101>103-222100-
CENTRAL WYOMING

CITY           SKY/WX    TMP DP  RH WIND       PRES   REMARKS
BIG PINEY      CLOUDY    15   1  53 CALM      29.91F
PINEDALE       CLOUDY    19   1  45 SW6       29.90F WCI  11
DUBOIS           N/A    N/A N/A N/A MISG        N/A
LANDER         FAIR      12   1  61 CALM      29.94F
RIVERTON       FAIR       9  -1  64 NE5       29.96F WCI   1
CASPER         FAIR      19   6  57 W8        29.96F WCI   9
DOUGLAS        FAIR      21  10  62 NW9       29.97F WCI  11

$$
WYZ021-027>030-104>119-222100-
SOUTHERN WYOMING

CITY           SKY/WX    TMP DP  RH WIND       PRES   REMARKS
EVANSTON       PTSUNNY   14   5  67 E8        29.87F WCI   3
FORT BRIDGER   LGT SNOW   3   0  84 CALM      29.94
ROCK SPRINGS   FAIR      14   5  67 NW6       29.90F WCI   5
DIXON          FAIR      24  13  63 CALM      29.95F
RAWLINS        CLOUDY    20  11  68 CALM      29.92F
SARATOGA       MOCLDY    19  10  68 CALM      29.90F
LARAMIE        PTSUNNY   17   9  70 N9        29.86S WCI   6
CHEYENNE       FAIR      26  16  65 NE8       29.87F WCI  18
TORRINGTON     FAIR      25  15  66 VRB3      29.99F
PINE BLUFFS    CLOUDY    21  14  73 MISG      29.94F

$$




USA.gov is the U.S. government's official web portal to all federal, state and local government web resources and services.